Hourly Data Report for September 17, 2017

All times are specified in Local Standard Time (LST). Add 1 hour to adjust for Daylight Saving Time where and when it is observed.

KOUCHIBOUGUAC CS
NEW BRUNSWICK

46°47'00.000" N
65°01'00.000" W
21.00 m
8102328
71670
AKC

Download Data

Hourly Data (September 2017)
Hourly Data Report for September 17, 2017
Temp Definition
°C
Dew Point Temp Definition
°C
Rel Hum Definition
%
Wind Dir Definition
10's deg

Wind Spd Definition
km/h
Visibility Definition
km
Stn Press Definition
kPa
Hmdx Definition


Wind Chill Definition


Weather Definition


TIME
00:00 13.0 11.0 87 0 1   102.06     LegendNANA
01:00 12.7 11.2 91   0   102.08     LegendNANA
02:00 12.2 11.0 92 7 1   102.04     LegendNANA
03:00 12.6 11.5 94   0   101.99     LegendNANA
04:00 12.8 11.7 93 0 1   102.03     LegendNANA
05:00 12.7 11.9 95 3 2   102.04     LegendNANA
06:00 13.0 11.7 92 0 1   102.06     LegendNANA
07:00 13.5 12.2 92 36 2   102.09     LegendNANA
08:00 14.2 12.3 88 0 1   102.13     LegendNANA
09:00 14.3 13.0 92 12 4   102.12     LegendNANA
10:00 14.4 12.8 90 6 3   102.11     LegendNANA
11:00 14.8 12.7 87 8 5   102.10     LegendNANA
12:00 15.2 13.0 86 11 3   102.06     LegendNANA
13:00 15.5 12.9 85 11 5   102.01     LegendNANA
14:00 15.9 12.9 83 10 5   101.97     LegendNANA
15:00 16.1 12.9 81 9 4   101.97     LegendNANA
16:00 15.6 12.7 83 7 4   101.98     LegendNANA
17:00 15.3 13.1 87 7 4   101.96     LegendNANA
18:00 15.1 13.3 89 4 3   101.97     LegendNANA
19:00 14.9 13.3 90 8 3   102.03     LegendNANA
20:00 14.7 13.4 92 5 3   102.04     LegendNANA
21:00 14.7 13.3 91 9 2   102.02     LegendNANA
22:00 14.7 13.3 92 5 1   102.05     LegendNANA
23:00 14.7 13.5 92 2 3   102.06     LegendNANA

Notes on Data Quality.

Legend

  • E = Estimated
  • M = Missing
  • NA = Not Available
  • ‡ = Partner data that is not subject to review by the National Climate Archives
Date modified: